{"data":{"norad_id":35684,"epoch":"2026-09-19T22:15:52.391808Z","epoch_age_seconds":63793,"freshness":"FRESH","line1":"1 35684U 09041D   26262.92768972  .00000394  00000+0  53568-4 0  9994","line2":"2 35684  98.1340 340.1032 0043494  16.0454 344.2126 14.83994133925418","mean_motion":14.83994133,"eccentricity":0.0043494,"inclination_deg":98.134,"raan_deg":340.1032,"arg_perigee_deg":16.0454,"mean_anomaly_deg":344.2126,"bstar":5.3568e-5,"rev_number":92541,"period_min":97.035424061208,"perigee_km":586.32134451554,"apogee_km":647.16842304617,"semimajor_km":6994.8818837809,"source":"CELESTRAK","updated_at":"2026-09-20T09:00:47.442453Z"}}